Flag for U.S.A. Weather past 2 weeks in Knoxville, Tennessee, U.S.A.

Now
72 °F

Mostly cloudy.


Feels Like: 70 °F
Forecast: 66 / 84 °F
Wind: 7 mph from Southwest

Location: McGhee Tyson Airport

Current Time: Jul 6, 2015 at 10:41:34 AM

Latest Report: Jul 6, 2015 at 9:53 AM


Visibility: 10 mi

Pressure: 30.14 "Hg

Humidity: 87%

Dew point: 68 °F

Location of KnoxvilleLocation

Historic Weather in Knoxville — Graph

°F

Knoxville temperature yesterday

Maximum temperature yesterday: 76 °F (at 1:53 PM)
Minimum temperature yesterday: 68 °F (at 4:53 AM)
Average temperature yesterday: 71 °F

Past Weeks' High & Low Weather Summary

 TemperatureHumidityPressure
High95 °F (Jun 26, 3:53 PM)97% (Jul 2, 10:00 AM)30.13 "Hg (Jul 2, 10:00 AM)
Low59 °F (Jun 29, 5:53 AM)36% (Jun 26, 4:56 PM)29.79 "Hg (Jun 27, 2:53 PM)
Average76 °F76%29.98 "Hg
* Reported Jun 21 8:53 AM — Jul 6 8:53 AM, Knoxville, Weather by CustomWeather, © 2015

Note: Actual official high and low records may vary slightly from our data, if they occured in-between our weather recording intervals... More about our weather records

Advertising

Knoxville weather history for previous 24 hours

 ConditionsComfort  
Time TempWeatherWind HumidityBarometerVisibility
8:53 AM
Mon, Jul 6
71 °FOvercast.9 mph87%30.13 "Hg10 mi
7:53 AM69 °FOvercast.5 mph90%30.13 "Hg10 mi
7:01 AM69 °FOvercast.5 mph90%30.13 "Hg10 mi
5:53 AM68 °FOvercast.3 mph93%30.07 "Hg10 mi
4:53 AM67 °FPassing clouds.3 mph93%30.05 "Hg10 mi
3:53 AM68 °FPassing clouds.5 mph90%30.05 "Hg9 mi
2:53 AM69 °FPassing clouds.5 mph87%30.05 "Hg10 mi
1:53 AM69 °FPassing clouds.5 mph90%30.06 "Hg10 mi
12:53 AM70 °FOvercast.5 mph87%30.07 "Hg10 mi
11:53 PM
Sun, Jul 5
70 °FOvercast.7 mph87%30.08 "Hg10 mi
10:53 PM71 °FOvercast.5 mph84%30.10 "Hg10 mi
9:53 PM70 °FOvercast.7 mph87%30.06 "Hg10 mi
8:53 PM71 °FOvercast.8 mph84%30.04 "Hg10 mi
7:53 PM71 °FOvercast.7 mph87%30.05 "Hg10 mi
6:53 PM72 °FOvercast.13 mph81%30.05 "Hg10 mi
5:53 PM75 °FLight rain. Mostly cloudy.13 mph76%30.03 "Hg10 mi
4:53 PM74 °FMostly cloudy.8 mph79%30.02 "Hg10 mi
3:53 PM72 °FLight rain. Partly sunny.9 mph84%30.03 "Hg9 mi
1:53 PM76 °FMostly cloudy.18 mph74%30.03 "Hg10 mi
12:53 PM75 °FMostly cloudy.14 mph76%30.04 "Hg10 mi
11:53 AM75 °FPartly sunny.14 mph76%30.03 "Hg10 mi
10:53 AM74 °FPartly sunny.15 mph79%30.03 "Hg10 mi
10:04 AM71 °FMostly cloudy.15 mph87%30.08 "Hg10 mi
Weather by CustomWeather, © 2015

See weather overviewHow to use our weather pages